Theta_e
322 323 322 323 324 324 324 324 324 325 324 324 324 324 324 324 324 323 323 324 324 323 324 323 322 324 325 323 321 321 322 323 318 320 322 321 320 321 323 326 327 325 322
322 322 322 323 323 322 323 324 324 324 324 325 325 325 325 325 324 324 323 324 323 322 321 321 322 324 323 323 322 321 322 325 321 316 319 317 317 319 321 321 322 322 322
322 321 321 321 321 323 324 323 323 323 324 325 326 325 324 325 325 325 325 323 324 322 322 321 323 322 321 321 321 321 323 324 322 318 316 318 317 317 316 317 316 317 320
322 321 321 321 322 323 324 323 324 324 324 325 325 326 326 326 326 326 325 324 325 323 324 323 323 322 322 320 321 322 323 322 321 318 315 315 315 316 315 313 313 316 316
322 321 321 322 323 323 324 324 325 324 325 325 325 327 326 325 323 325 324 323 325 324 324 324 323 322 321 320 322 322 323 320 318 316 315 314 313 313 311 313 311 313 313
322 321 322 322 323 323 323 324 324 324 325 326 324 323 322 320 302 308 320 323 324 323 323 322 322 318 316 314 315 315 320 322 319 317 315 313 314 315 315 313 312 311 306
322 323 323 323 323 323 323 322 321 321 322 322 322 321 320 318 301 302 309 324 323 323 323 322 323 321 320 323 311 311 310 311 316 320 316 316 315 316 315 314 315 314 311
322 323 324 324 322 323 322 321 319 319 319 318 318 318 318 315 301 302 306 323 323 324 324 323 321 319 319 321 320 319 321 322 321 323 322 320 320 320 320 318 313 310 310
323 323 324 324 322 322 321 319 319 319 319 317 318 317 318 318 301 300 314 325 324 323 323 322 320 318 304 304 320 319 317 314 306 306 306 304 303 305 311 316 312 312 309
323 324 325 325 324 322 321 319 319 321 320 318 316 316 309 318 300 301 316 323 321 320 319 317 306 312 300 304 318 318 314 314 314 314 311 307 310 308 308 318 316 311 310
325 325 324 325 324 323 321 321 320 322 320 317 316 316 318 315 309 302 307 322 320 319 318 316 311 299 300 300 308 319 314 316 311 316 316 316 317 317 316 317 317 314 313
324 324 323 323 325 322 322 320 321 322 319 317 315 315 319 317 304 301 301 308 311 321 318 317 307 297 298 300 307 300 302 310 317 316 315 315 315 315 315 316 318 317 317
323 323 323 323 323 322 321 321 319 320 317 316 317 317 318 318 315 298 297 299 303 319 319 308 296 296 297 300 300 301 306 318 317 315 315 315 317 318 317 315 316 317 318
321 322 322 323 321 322 323 322 321 320 319 317 316 316 318 316 317 315 313 312 304 306 304 306 305 305 305 306 310 314 319 320 319 318 318 316 315 317 317 318 316 316 316
321 322 323 321 322 320 322 319 321 322 319 320 318 319 318 316 317 310 311 316 317 309 311 315 316 315 314 316 318 318 319 319 319 318 317 316 316 317 317 317 317 315 316
321 322 322 322 322 321 317 314 296 299 304 304 302 313 318 305 300 298 296 297 297 301 316 316 315 315 315 317 318 317 318 315 319 319 318 318 316 317 316 316 316 317 317
321 322 321 320 321 318 316 317 317 309 297 297 296 299 304 301 295 295 294 293 293 303 317 317 317 317 317 318 319 319 318 319 320 320 319 319 318 318 312 316 317 316 315
322 308 323 323 322 320 319 319 319 317 319 317 298 300 295 293 293 292 293 298 311 311 317 318 318 318 318 319 319 320 320 319 320 319 319 318 318 318 316 317 318 317 316
321 321 323 323 322 318 320 319 319 318 317 317 311 301 293 291 291 291 295 316 315 315 315 317 320 319 320 321 321 321 318 318 319 320 320 319 320 320 319 319 319 302 306
321 310 315 322 319 319 318 317 316 316 318 317 316 314 304 304 309 307 308 316 316 317 317 317 319 320 321 321 320 319 318 315 318 321 321 321 321 321 320 320 320 319 314
320 316 306 320 319 319 318 318 316 315 318 319 319 311 299 316 316 315 313 315 318 318 317 318 318 320 321 321 319 318 318 319 320 321 321 321 321 320 321 321 321 320 320
320 318 318 319 319 319 318 318 316 315 317 319 319 309 291 317 318 318 317 317 319 321 322 320 319 319 319 320 321 321 321 321 321 321 321 321 321 321 321 320 320 319 319
319 318 319 319 319 308 314 317 316 315 315 317 318 313 304 314 319 319 319 320 320 321 322 323 322 321 322 322 322 322 321 321 323 323 321 321 321 321 321 320 319 318 318
321 319 319 319 319 317 317 317 317 307 316 316 316 317 314 315 318 321 321 321 321 321 322 323 324 324 324 324 324 323 323 323 323 323 323 322 321 316 320 320 319 319 319
321 320 318 317 317 318 317 318 319 317 316 317 317 317 316 316 318 320 322 323 322 322 321 322 323 324 324 325 325 325 316 299 317 311 323 322 321 321 320 319 319 319 318
313 314 314 315 315 315 315 315 315 315 317 318 318 318 318 317 316 317 318 321 322 322 323 323 323 324 324 325 325 314 300 297 304 296 321 323 321 321 321 320 320 318 318
Wind_Speed
7 6 8 6 6 6 5 5 5 5 5 5 5 5 4 4 4 3 2 4 4 4 3 4 4 4 4 3 3 3 3 3 6 3 3 3 4 6 8 8 11 12 16
7 7 6 6 6 5 5 5 5 6 4 5 5 4 4 4 4 4 4 3 4 4 3 4 3 2 5 4 3 5 5 4 8 9 3 3 5 7 11 11 8 10 13
8 7 6 6 6 5 5 5 5 5 5 4 4 4 4 4 4 3 3 5 4 4 4 4 2 2 2 3 4 5 5 6 9 8 6 2 3 7 12 12 10 13 14
7 7 6 6 5 5 5 5 5 5 5 4 4 4 4 3 2 2 3 4 3 3 3 3 4 4 6 6 6 8 9 10 9 9 8 6 5 7 10 12 10 11 13
7 6 6 5 5 5 5 5 4 5 4 4 4 4 4 3 1 3 4 4 4 4 5 4 4 4 7 7 7 9 11 10 10 8 8 8 8 8 10 9 10 10 8
7 6 6 5 5 5 5 5 4 4 4 4 5 6 5 3 4 0 5 4 4 5 5 5 5 5 6 8 9 7 9 13 12 8 8 10 10 7 10 9 11 11 6
7 7 6 6 6 5 5 5 4 5 5 5 6 6 4 3 5 2 5 4 4 4 4 4 3 3 6 7 8 11 8 9 9 13 15 11 12 13 12 11 9 6 6
7 7 6 6 6 6 5 5 5 4 5 5 4 4 4 2 5 5 7 5 5 5 3 3 4 4 5 9 10 9 8 7 8 8 10 10 12 12 11 10 9 9 8
8 8 8 7 7 6 6 6 4 4 4 3 4 5 3 3 5 5 7 5 5 5 4 4 4 4 7 10 11 10 10 8 11 16 14 15 13 15 13 12 9 11 5
8 9 8 7 7 7 6 6 3 3 4 4 5 4 2 3 2 4 5 4 4 4 5 5 8 6 8 11 12 12 12 10 12 13 11 13 13 11 10 7 10 10 5
8 7 8 7 7 6 5 3 5 5 5 5 5 4 4 4 3 5 8 4 3 4 4 4 3 9 10 11 11 11 12 12 13 12 10 10 10 9 7 6 5 7 5
8 8 8 7 6 6 7 4 5 6 6 5 6 4 3 4 5 5 4 7 6 5 5 5 4 10 11 14 11 17 17 13 10 10 9 9 9 7 6 6 6 5 3
9 8 7 7 6 6 7 7 5 5 6 5 5 4 3 3 3 8 6 7 7 5 4 8 11 11 12 13 17 15 11 9 9 9 9 8 6 6 6 5 3 4 4
9 8 7 7 7 6 6 5 5 5 4 5 6 5 4 2 2 3 4 4 8 7 9 8 7 9 9 8 9 7 7 8 9 10 8 7 6 5 5 5 4 5 4
8 8 7 6 6 7 5 3 4 3 4 6 6 6 5 3 2 5 5 4 5 6 9 5 5 5 7 5 5 7 7 7 7 7 8 7 7 7 5 4 3 4 3
8 7 7 7 6 6 6 3 8 4 5 6 4 6 3 6 8 9 8 10 12 10 4 6 6 6 6 5 6 6 6 7 7 7 7 8 8 7 6 4 2 4 4
10 8 6 7 6 7 7 7 5 4 8 5 2 7 9 9 9 10 10 10 8 5 4 4 5 6 6 5 6 8 7 6 8 7 7 7 7 6 6 6 6 5 6
9 12 9 7 7 6 6 6 5 5 5 3 6 3 4 8 10 10 13 9 3 2 4 5 5 5 6 6 7 7 5 5 6 7 7 7 8 8 8 7 8 7 7
9 8 7 6 6 6 6 5 5 5 4 4 3 5 8 9 8 8 11 5 6 5 4 5 6 5 5 6 6 6 5 6 8 8 8 8 7 7 7 7 7 7 7
8 12 10 7 6 6 6 6 5 4 4 6 6 5 5 4 4 4 4 4 7 7 6 6 6 6 5 5 5 7 5 4 6 7 7 7 7 7 8 8 9 9 8
8 8 9 6 7 7 6 6 5 5 5 5 6 6 9 8 8 7 7 7 7 7 8 7 7 8 9 9 8 7 9 8 9 9 9 8 8 9 9 9 10 10 11
8 9 8 8 6 7 7 6 6 6 5 6 5 5 9 4 7 8 8 9 9 8 7 8 8 9 9 10 10 10 10 10 10 10 10 10 10 10 10 10 10 10 11
8 9 8 6 7 7 6 6 7 6 6 6 6 7 7 8 8 8 9 9 8 8 8 8 9 9 9 9 9 10 11 11 10 10 11 11 10 10 10 11 11 11 10
7 9 7 6 7 6 6 7 8 7 7 7 6 6 8 8 9 10 9 8 8 9 9 9 10 12 10 10 10 10 11 11 10 11 15 11 11 11 11 11 12 14 13
8 7 7 5 3 1 1 3 4 5 6 6 6 6 7 7 8 9 8 8 8 9 11 11 10 14 18 19 17 18 15 14 16 13 12 15 16 17 14 12 13 12 14
11 11 11 10 10 9 8 6 5 3 1 1 2 2 4 6 7 7 7 8 8 9 10 9 12 18 18 15 19 18 13 14 15 14 14 13 13 13 13 15 18 13 14
Wind_Direction
125 121 122 124 124 121 132 134 144 136 145 151 146 147 154 148 147 154 194 205 202 209 214 206 204 180 188 161 160 160 173 149 132 79 66 43 45 80 70 99 126 127 124
134 125 124 122 125 130 137 144 142 140 151 149 141 149 157 134 148 179 196 188 178 183 183 149 160 156 198 171 149 161 156 135 136 113 96 63 63 70 83 85 98 111 117
130 124 127 138 140 142 145 142 145 147 151 138 145 161 143 149 176 218 196 187 182 180 169 167 168 118 146 142 142 134 123 112 125 114 110 99 66 82 82 81 87 107 99
132 133 145 158 152 147 147 145 153 153 141 150 166 145 138 150 183 195 174 178 181 167 192 123 149 139 148 142 138 133 127 121 117 113 114 108 105 92 98 107 106 108 111
137 146 157 151 139 139 139 147 149 146 159 167 158 122 122 122 76 133 135 141 134 109 124 134 133 130 143 141 145 143 135 130 128 119 114 115 116 119 116 119 101 110 81
143 148 143 143 149 146 139 145 145 129 140 138 123 127 121 93 348 351 143 133 123 127 139 136 136 113 119 136 129 134 147 140 136 130 134 135 134 120 128 127 125 129 113
143 148 157 158 147 145 132 128 133 131 132 122 114 118 119 111 357 86 151 135 131 123 132 145 146 129 142 150 124 117 89 95 124 147 144 146 142 141 138 131 130 118 113
153 152 152 153 147 129 126 136 114 116 128 118 119 121 124 90 355 144 125 114 110 117 126 113 102 123 142 145 138 135 121 117 120 137 141 133 138 139 138 126 116 98 88
159 164 166 156 142 139 144 136 125 135 131 120 144 131 133 106 22 171 118 112 108 103 88 97 109 103 138 139 137 132 109 84 68 94 100 110 115 115 125 120 124 130 123
167 176 156 148 147 158 150 143 129 143 126 131 124 114 106 102 60 178 121 107 103 96 82 80 83 105 115 130 129 131 122 125 117 110 106 101 111 110 97 120 139 138 126
160 147 144 145 152 151 140 124 133 131 125 121 118 108 91 52 67 105 119 111 122 111 99 98 93 102 101 103 124 135 131 126 118 121 121 121 125 123 117 118 112 140 142
149 146 143 142 147 146 141 121 127 129 127 122 121 105 78 78 56 66 96 115 122 123 117 110 108 109 103 99 101 118 119 120 123 125 128 131 135 139 134 130 143 153 82
145 146 138 133 137 145 138 141 128 132 151 145 143 139 117 56 62 80 71 107 111 106 114 111 104 98 95 100 119 119 119 126 130 134 141 141 146 126 112 112 126 108 82
147 142 138 143 141 133 137 148 153 158 146 148 170 170 146 100 115 107 107 97 91 84 102 107 106 93 93 111 119 119 128 140 144 149 137 112 111 133 149 150 158 172 198
147 144 146 140 146 141 131 131 160 161 176 167 184 167 150 165 177 145 145 137 119 114 112 115 107 105 125 129 116 122 124 128 132 138 136 140 150 159 159 161 148 158 174
145 149 158 153 146 150 143 118 51 24 173 154 135 153 129 124 155 143 128 117 120 130 108 121 121 129 139 134 126 121 135 141 147 150 148 156 163 170 172 172 153 176 188
155 154 150 153 154 153 156 161 166 68 78 70 122 147 148 154 148 136 125 116 110 116 125 125 130 142 150 149 147 160 172 169 157 159 156 163 173 181 174 194 199 203 219
156 157 163 169 164 157 161 162 158 169 163 149 64 84 116 126 134 128 129 116 113 64 142 147 144 149 159 162 166 171 151 157 172 168 173 182 189 190 197 213 213 221 227
151 163 165 166 166 159 149 151 164 169 166 148 124 82 84 98 109 138 166 151 172 177 174 179 165 161 172 176 175 171 163 190 196 192 198 200 200 198 207 216 221 215 218
161 159 160 160 150 155 154 159 166 178 168 162 163 156 139 133 163 165 196 178 186 192 187 187 189 195 195 197 188 199 198 187 197 205 207 207 205 208 221 225 228 232 222
155 156 156 154 165 171 171 178 177 172 173 174 174 167 172 168 180 184 189 200 202 199 196 194 190 194 197 196 191 192 204 207 207 210 211 213 213 221 226 232 237 238 245
162 157 164 170 167 169 178 174 173 180 187 183 170 153 167 188 181 190 199 207 211 209 201 196 201 200 197 198 200 206 211 214 210 210 217 221 222 226 230 233 237 239 243
152 156 166 164 173 162 161 178 178 185 192 196 177 161 182 203 200 201 205 210 207 209 206 204 208 210 207 203 201 203 206 211 211 205 211 216 219 223 224 229 231 236 235
155 148 166 168 159 171 184 182 185 187 194 197 191 191 193 201 207 212 211 206 208 211 208 210 214 216 213 212 211 211 214 215 211 211 213 219 224 221 229 231 233 235 240
64 63 68 58 60 99 185 201 210 199 195 200 202 205 206 207 213 221 220 214 213 212 214 214 216 221 220 218 217 215 214 206 213 209 210 219 223 223 224 228 231 235 235
70 69 66 61 56 53 52 49 44 34 5 326 298 251 232 218 226 228 231 232 231 230 230 228 232 233 235 234 234 230 218 212 215 216 218 224 229 232 234 236 237 234 238